Location: Byszew
(52.1813°N, 19.2693°E)
Time: 03:11:47
(UTC+00:00)

USA 308 - Visible Passes

Search period start: 15 June 2021 00:00
Search period end: 25 June 2021 00:00
Orbit: 568 x 576 km, 54.0° (Epoch: 10 May)

Date Brightness Start Highest point End Pass type
(mag) Time Alt. Az. Time Alt. Az. Time Alt. Az.
16 Jun 5.3 00:50:04 10° SE 00:51:16 11° SE 00:52:27 10° ESE visible
17 Jun 4.9 00:50:02 10° S 00:52:37 16° SE 00:55:13 10° E visible
18 Jun 4.5 00:50:54 11° S 00:54:01 22° SE 00:57:18 10° E visible
19 Jun 4.1 00:52:12 12° SSW 00:55:27 29° SE 00:59:10 10° E visible
20 Jun 3.6 00:53:26 13° SSW 00:56:56 39° SE 01:00:55 10° ENE visible
20 Jun 4.9 23:18:33 13° SE 23:19:15 14° SE 23:21:25 10° E visible
21 Jun 3.2 00:54:37 12° SW 00:58:28 51° SSE 01:02:36 10° ENE visible
21 Jun 4.5 23:19:39 18° SSE 23:20:37 19° SE 23:23:39 10° E visible
22 Jun 2.9 00:55:48 10° SW 01:00:00 66° SSE 01:04:14 10° ENE visible
22 Jun 4.1 23:20:42 22° SSE 23:22:01 26° SE 23:25:34 10° E visible
23 Jun 2.9 00:57:20 10° WSW 01:01:36 81° SSE 01:05:51 10° ENE visible
23 Jun 3.6 23:21:40 24° S 23:23:28 35° SE 23:27:20 10° ENE visible
24 Jun 2.9 00:58:56 10° WSW 01:03:12 86° NNW 01:07:29 10° ENE visible
24 Jun 5.0 21:46:28 11° ESE 21:46:28 11° ESE 21:47:21 10° ESE visible
24 Jun 3.2 23:22:32 22° SSW 23:24:57 46° SSE 23:29:02 10° ENE visible
